Location: Lussas
(44.6119°N, 4.4726°E)
Time: 06:15:55
(UTC+00:00)

Cosmos 1408 Rocket - Pass Details

Date: 26 November 2020
Orbit: 600 x 631 km, 82.6° (Epoch: 18 January)

Event Time Altitude Azimuth Distance (km) Brightness Sun altitude
Rises 05:43:53 0° 206° (SSW) 2,910 6.9 -12.1°
Reaches altitude 10° 05:46:13 10° 214° (SSW) 2,008 6.0 -11.7°
Maximum altitude 05:50:25 40° 284° (WNW) 938 4.0 -11.0°
Drops below altitude 10° 05:54:38 10° 354° (N) 2,018 5.9 -10.3°
Sets 05:57:00 0° 2° (N) 2,927 6.8 -9.9°
